Weather reports worldwide

Advertisment
Benson, United Kingdom (3658): temperature & dewpoint: 22.03.2020 20:00:00 - 28.03.2020 20:00:00 (GMT)Benson, United Kingdom (3658): temperature -20cm & temperature -100cm: 22.03.2020 20:00:00 - 28.03.2020 20:00:00 (GMT)Benson, United Kingdom (3658): wind speed & gusts: 22.03.2020 20:00:00 - 28.03.2020 20:00:00 (GMT)Benson, United Kingdom (3658): wind direction: 22.03.2020 20:00:00 - 28.03.2020 20:00:00 (GMT)Benson, United Kingdom (3658): reduced air pressure: 22.03.2020 20:00:00 - 28.03.2020 20:00:00 (GMT)Benson, United Kingdom (3658): visibility: 22.03.2020 20:00:00 - 28.03.2020 20:00:00 (GMT)Benson, United Kingdom (3658): precipitation: 22.03.2020 20:00:00 - 28.03.2020 20:00:00 (GMT)
Date & Time tt [°C] td [°C] tt -20cm [°C] tt -100cm [°C] ff [km/h] ff [kn] fx [km/h] fx [kn] dd ppp [hPa] vv [km] rr [mm]
28.03.2020 20:00:00 - - - - - - - - - - - -
28.03.2020 19:00:00 6,7 -0,2 - - 34 18 55 30 NNE 1032,8 10 0,0
28.03.2020 18:00:00 7,5 0,2 - - 35 19 54 29 NNE 1031,8 30 0,0
28.03.2020 17:00:00 8,7 0,9 - - 37 20 61 33 NNE 1031,0 10 0,0
28.03.2020 16:00:00 9,1 1,7 - - 34 18 55 30 NE 1030,7 30 0,0
28.03.2020 15:00:00 9,3 2,4 - - 37 20 55 30 NNE 1030,3 30 0,0
28.03.2020 14:00:00 9,5 3,0 - - 31 17 55 30 NNE 1030,4 10 0,0
28.03.2020 13:00:00 8,2 2,9 - - 35 19 52 28 NNE 1030,5 10 0,0
28.03.2020 12:00:00 8,7 3,6 - - 39 21 54 29 NNE 1030,3 10 0,0
28.03.2020 11:00:00 8,6 3,5 - - 31 17 57 31 NNE 1029,9 10 0,0
28.03.2020 10:00:00 9,2 3,3 - - 37 20 52 28 NNE 1029,3 27 0,0
28.03.2020 09:00:00 7,5 2,5 7,0 7,9 35 19 52 28 NNE 1028,8 13 0,0
28.03.2020 08:00:00 5,6 2,7 - - 29 16 - - NNE 1028,5 8 0,0
28.03.2020 07:00:00 4,1 1,8 - - 24 13 - - NNE 1028,0 8 0,0
28.03.2020 06:00:00 3,6 2,0 - - 21 11 - - NNE 1027,4 7 0,0
28.03.2020 05:00:00 3,6 2,1 - - 15 8 - - N 1026,9 7 0,0
28.03.2020 04:00:00 3,2 1,7 - - 16 9 - - N 1026,6 7 0,0
28.03.2020 03:00:00 3,4 1,6 - - 18 10 - - N 1026,4 8 0,0
28.03.2020 02:00:00 3,4 1,8 - - 16 9 - - N 1026,5 8 0,0
28.03.2020 01:00:00 3,5 1,9 - - 16 9 - - N 1026,4 7 0,0
28.03.2020 00:00:00 3,8 1,9 - - 15 8 - - N 1026,4 8 0,0
27.03.2020 23:00:00 4,2 1,9 - - 16 9 - - N 1026,3 9 0,0
27.03.2020 22:00:00 4,7 1,5 - - 21 11 - - NNE 1026,2 10 0,0
27.03.2020 21:00:00 5,2 -0,1 - - 16 9 - - NNE 1025,9 10 0,0
27.03.2020 20:00:00 6,4 -0,7 - - 26 14 - - NNE 1025,4 10 0,0
27.03.2020 19:00:00 7,7 -1,3 - - 24 13 - - NNE 1024,8 10 0,0
27.03.2020 18:00:00 9,7 1,5 - - 28 15 - - NNE 1023,9 16 0,0
27.03.2020 17:00:00 11,2 2,5 - - 24 13 - - NNE 1023,2 14 0,0
27.03.2020 16:00:00 12,0 2,7 - - 28 15 - - NNE 1023,0 10 0,0
27.03.2020 15:00:00 12,3 2,7 - - 26 14 - - NNE 1023,3 10 0,0
27.03.2020 14:00:00 12,4 1,8 - - 28 15 - - NE 1023,7 10 0,0
27.03.2020 13:00:00 11,8 1,1 - - 26 14 - - NE 1024,0 10 0,0
27.03.2020 12:00:00 11,1 0,8 - - 28 15 - - NE 1024,6 10 0,0
27.03.2020 11:00:00 10,1 2,9 - - 21 11 - - NNE 1024,9 12 0,0
27.03.2020 10:00:00 7,1 2,9 - - 21 11 - - NNE 1025,2 8 0,0
27.03.2020 09:00:00 5,0 2,9 7,0 7,9 21 11 - - NNE 1025,3 6 0,0
27.03.2020 08:00:00 2,4 1,8 - - 22 12 - - NNE 1025,1 2,8 0,0
27.03.2020 07:00:00 0,5 0,1 - - 9 5 - - NNE 1025,0 3,7 0,0
27.03.2020 06:00:00 -1,6 -2,3 - - 4 2 - - NNE 1024,8 3,0 0,0
27.03.2020 05:00:00 -0,8 -1,6 - - 5 3 - - NW 1024,7 5 0,0
27.03.2020 04:00:00 -0,6 -1,7 - - 9 5 - - NNE 1024,4 5 0,0
27.03.2020 03:00:00 -0,8 -2,3 - - 8 4 - - NNE 1024,4 6 0,0
27.03.2020 02:00:00 0,0 -2,3 - - 8 4 - - NNE 1024,4 10 0,0
27.03.2020 01:00:00 0,5 -3,0 - - 11 6 - - NNE 1024,6 10 0,0
27.03.2020 00:00:00 1,3 -4,1 - - 8 4 - - N 1024,6 10 0,0
26.03.2020 23:00:00 3,2 -4,3 - - 13 7 - - NE 1024,6 20 0,0
26.03.2020 22:00:00 3,5 -4,2 - - 13 7 - - ENE 1024,2 10 0,0
26.03.2020 21:00:00 2,5 -2,6 - - 13 7 - - NE 1023,6 10 0,0
26.03.2020 20:00:00 3,7 -2,6 - - 13 7 - - NE 1023,4 10 0,0
26.03.2020 19:00:00 7,9 -2,7 - - 15 8 - - NE 1022,8 10 0,0
26.03.2020 18:00:00 11,0 -2,4 - - 18 10 - - NE 1022,2 24 0,0
26.03.2020 17:00:00 12,6 -2,5 - - 24 13 - - NE 1022,0 23 0,0
26.03.2020 16:00:00 13,3 -2,2 - - 24 13 - - NNE 1022,2 10 0,0
26.03.2020 15:00:00 - - - - 24 13 - - NNE - 20 0,0
26.03.2020 14:00:00 - - - - - - - - - - 10 0,0
26.03.2020 13:00:00 - - - - - - - - - - 10 0,0
26.03.2020 12:00:00 11,6 -1,7 - - 24 13 - - NNE 1023,6 19 0,0
26.03.2020 11:00:00 10,4 -1,7 - - 28 15 - - NE 1024,0 19 0,0
26.03.2020 10:00:00 7,8 1,2 - - 22 12 - - NNE 1024,4 11 0,0
26.03.2020 09:00:00 4,8 1,4 7,2 7,9 15 8 - - NNE 1024,4 7 0,0
26.03.2020 08:00:00 1,5 -0,5 - - 9 5 - - N 1024,4 6 0,0
26.03.2020 07:00:00 -2,3 -3,9 - - 5 3 - - NW 1024,5 7 0,0
26.03.2020 06:00:00 -2,3 -4,5 - - 8 4 - - NNW 1024,1 9 0,0
26.03.2020 05:00:00 -0,7 -3,4 - - 9 5 - - NNW 1023,6 11 0,0
26.03.2020 04:00:00 -1,6 -5,0 - - 4 2 - - N 1023,8 10 0,0
26.03.2020 03:00:00 -0,8 -4,5 - - 4 2 - - NNW 1023,7 14 0,0
26.03.2020 02:00:00 -0,7 -3,3 - - 8 4 - - NNE 1024,1 10 0,0
26.03.2020 01:00:00 -1,5 -5,3 - - 9 5 - - NNE 1024,1 10 0,0
26.03.2020 00:00:00 0,5 -5,2 - - 5 3 - - NE 1024,3 10 0,0
25.03.2020 23:00:00 1,3 -5,0 - - 5 3 - - NNE 1024,3 21 0,0
25.03.2020 22:00:00 4,0 -3,7 - - 15 8 - - E 1024,2 23 0,0
25.03.2020 21:00:00 2,3 -5,0 - - 13 7 - - E 1023,9 22 0,0
25.03.2020 20:00:00 4,6 -3,8 - - 13 7 - - ENE 1023,7 10 0,0
25.03.2020 19:00:00 6,1 -3,1 - - 9 5 - - E 1023,1 26 0,0
25.03.2020 18:00:00 10,0 -3,2 - - 11 6 - - ENE 1022,7 10 0,0
25.03.2020 17:00:00 13,2 -3,8 - - 13 7 - - ENE 1022,6 10 0,0
25.03.2020 16:00:00 14,0 -3,3 - - 9 5 - - E 1022,6 10 0,0
25.03.2020 15:00:00 14,4 -3,5 - - 8 4 - - ESE 1023,0 25 0,0
25.03.2020 14:00:00 13,7 -5,1 - - 11 6 - - ESE 1023,6 10 0,0
25.03.2020 13:00:00 13,5 -3,0 - - 13 7 - - SE 1024,2 10 0,0
25.03.2020 12:00:00 12,5 -2,6 - - 11 6 - - E 1024,5 24 0,0
25.03.2020 11:00:00 11,3 -6,1 - - 11 6 - - E 1025,0 10 0,0
25.03.2020 10:00:00 9,8 -1,9 - - 9 5 - - SSE 1025,1 28 0,0
25.03.2020 09:00:00 7,9 0,7 7,2 7,9 0 0 - - N 1025,2 21 0,0
25.03.2020 08:00:00 2,6 -0,8 - - 2 1 - - W 1025,5 10 0,0
25.03.2020 07:00:00 -1,2 -3,0 - - 2 1 - - WNW 1025,6 10 0,0
25.03.2020 06:00:00 -2,9 -4,9 - - 0 0 - - N 1025,3 16 0,0
25.03.2020 05:00:00 -1,7 -3,4 - - 2 1 - - NNW 1024,9 17 0,0
25.03.2020 04:00:00 -1,6 -4,0 - - 4 2 - - NW 1024,7 17 0,0
25.03.2020 03:00:00 1,4 -3,7 - - 2 1 - - WNW 1024,7 21 0,0
25.03.2020 02:00:00 3,4 -3,2 - - 5 3 - - SSW 1024,7 22 0,0
25.03.2020 01:00:00 3,2 -3,4 - - 9 5 - - S 1024,8 22 0,0
25.03.2020 00:00:00 3,0 -3,7 - - 13 7 - - S 1024,9 10 0,0
24.03.2020 23:00:00 4,2 -4,1 - - 8 4 - - SSE 1025,0 10 0,0
24.03.2020 22:00:00 4,2 -3,5 - - 5 3 - - S 1025,1 10 0,0
24.03.2020 21:00:00 6,2 -2,0 - - 5 3 - - SSE 1024,8 25 0,0
24.03.2020 20:00:00 5,4 -1,1 - - 8 4 - - SE 1024,6 30 0,0
24.03.2020 19:00:00 6,3 -0,8 - - 9 5 - - SSE 1024,2 10 0,0
24.03.2020 18:00:00 10,7 1,3 - - 13 7 - - S 1023,6 10 0,0
24.03.2020 17:00:00 13,7 1,4 - - 18 10 - - S 1023,7 10 0,0
24.03.2020 16:00:00 14,7 2,5 - - 18 10 - - S 1023,8 10 0,0
24.03.2020 15:00:00 14,9 2,3 - - 21 11 - - S 1024,2 10 0,0
24.03.2020 14:00:00 14,8 4,0 - - 32 17 - - S 1025,0 10 0,0
24.03.2020 13:00:00 14,3 3,9 - - 36 19 - - S 1025,0 10 0,0
24.03.2020 12:00:00 13,3 2,6 - - 44 24 - - SSE 1025,2 10 0,0
24.03.2020 11:00:00 11,7 3,1 - - 44 24 - - SSE 1025,6 10 0,0
24.03.2020 10:00:00 10,2 3,4 - - 18 10 - - SSE 1025,9 25 0,0
24.03.2020 09:00:00 7,9 1,2 7,2 8,0 36 19 - - SSE 1026,2 10 0,0
24.03.2020 08:00:00 6,9 1,1 - - 22 12 - - SSE 1026,0 10 0,0
24.03.2020 07:00:00 4,8 0,0 - - 15 8 - - SSE 1025,9 21 0,0
24.03.2020 06:00:00 3,3 -0,4 - - 13 7 - - SSE 1025,9 20 0,0
24.03.2020 05:00:00 3,7 -0,4 - - 29 16 - - S 1025,4 10 0,0
24.03.2020 04:00:00 4,8 -0,8 - - 21 11 - - SSE 1025,0 23 0,0
24.03.2020 03:00:00 4,6 -1,0 - - 16 9 - - SSE 1025,1 23 0,0
24.03.2020 02:00:00 2,6 -1,5 - - 11 6 - - SSE 1025,4 21 0,0
24.03.2020 01:00:00 2,5 -2,5 - - 7 4 - - SE 1026,0 10 0,0
24.03.2020 00:00:00 4,0 -2,6 - - 10 6 - - SSE 1026,0 10 0,0
23.03.2020 23:00:00 5,8 -2,2 - - 36 19 - - ESE 1025,7 10 0,0
23.03.2020 22:00:00 5,5 -1,8 - - 25 14 - - SE 1025,9 10 0,0
23.03.2020 21:00:00 4,7 -3,0 - - 15 8 - - SE 1026,1 10 0,0
23.03.2020 20:00:00 6,2 -2,1 - - 32 17 - - ESE 1026,3 10 0,0
23.03.2020 19:00:00 6,9 -2,9 - - 25 14 - - ESE 1025,9 10 0,0
23.03.2020 18:00:00 9,8 -2,6 - - 25 14 - - E 1025,1 10 0,0
23.03.2020 17:00:00 11,8 -4,1 - - 22 12 - - SE 1024,8 30 0,0
23.03.2020 16:00:00 12,8 -2,0 - - 16 9 - - ESE 1024,6 30 0,0
23.03.2020 15:00:00 12,4 -2,2 - - 32 17 - - ESE 1024,8 10 0,0
23.03.2020 14:00:00 11,4 -2,6 - - 29 16 - - E 1025,2 10 0,0
23.03.2020 13:00:00 11,4 -0,3 - - 16 9 - - ESE 1025,6 30 0,0
23.03.2020 12:00:00 10,3 -1,1 - - 22 12 - - ESE 1026,1 10 0,0
23.03.2020 11:00:00 8,5 -1,6 - - 21 11 - - ESE 1027,0 10 0,0
23.03.2020 10:00:00 7,0 -2,0 - - 21 11 - - E 1027,7 10 0,0
23.03.2020 09:00:00 5,7 -2,2 7,2 8,0 18 10 - - SE 1027,5 30 0,0
23.03.2020 08:00:00 4,4 -2,2 - - 15 8 - - ESE 1027,5 30 0,0
23.03.2020 07:00:00 2,0 -3,1 - - 2 1 - - S 1027,2 29 0,0
23.03.2020 06:00:00 1,4 -3,5 - - 2 1 - - ESE 1027,1 10 0,0
23.03.2020 05:00:00 0,9 -3,4 - - 16 9 - - ESE 1026,4 26 0,0
23.03.2020 04:00:00 2,9 -2,1 - - 5 3 - - SE 1026,2 27 0,0
23.03.2020 03:00:00 2,2 -1,8 - - 4 2 - - ENE 1026,5 10 0,0
23.03.2020 02:00:00 3,2 -0,6 - - 5 3 - - N 1026,8 24 0,0
23.03.2020 01:00:00 2,0 -1,1 - - 13 7 - - NE 1027,3 22 0,0
23.03.2020 00:00:00 3,4 -0,3 - - 13 7 - - N 1027,2 10 0,0
22.03.2020 23:00:00 2,4 -0,7 - - 8 4 - - N 1027,3 10 0,0
22.03.2020 22:00:00 2,5 -0,6 - - 13 7 - - NNE 1027,5 10 0,0
22.03.2020 21:00:00 3,8 -0,7 - - 13 7 - - NNE 1027,3 26 0,0
22.03.2020 20:00:00 5,1 -0,6 - - 13 7 - - NE 1027,4 10 0,0

tt = temperature
td = dewpoint
tt -20cm = temperature -20cm
tt -100cm = temperature -100cm
ff = wind speed
fx = gusts
dd = wind direction
ppp = reduced air pressure
vv = visibility
rr = precipitation

Next stations